STAR ONE C2

Last updated on Wed Sep 09 2026 00:02:58 GMT+0000 (Coordinated Universal Time)

1 32768U 08018B 26251.50350221 -.00000297 00000+0 00000+0 0 9994 2 32768 1.4467 81.5190 0002464 93.9826 288.3335 1.00272965 67497
UTC large
Height (km)
Speed (km/s)
/
Latitude / Longitude
Inclination (degrees)
Orbital Period (minutes)
Azimuth
Elevation
Range (km)
Doppler Factor

Next 0 passes for location: London (51.5072 / 0.1276)

No passes found over London.
STAR ONE C2